Temp_Advection
nan nan nan nan nan nan nan nan nan nan nan nan nan nan nan nan nan nan nan nan nan nan nan nan nan nan nan nan nan nan nan nan nan nan nan nan nan nan nan nan nan nan nan
nan -0 -0 0 0 0 -0 -1 -1 -0 -0 -0 -0 -0 -0 0 1 0 -0 0 0 -0 -0 -0 0 0 0 -0 -0 0 1 1 1 0 0 1 1 0 0 1 0 1 nan
nan 0 -0 -0 0 -0 -0 -0 -0 -0 -0 -0 -0 -0 -0 -0 -0 0 0 0 1 0 -0 -0 0 0 -0 -0 0 1 1 1 0 0 0 0 0 0 1 1 0 1 nan
nan -0 -0 -0 -0 0 -0 -0 -0 -0 -0 -0 -0 -0 -0 -0 -0 -0 0 -0 -0 0 -0 -0 -0 -0 0 1 1 0 0 0 0 0 0 0 0 1 1 0 0 0 nan
nan -0 -0 0 -0 -0 -0 -0 -0 -0 -0 -0 -0 -0 -0 -0 -0 -0 -0 -0 -0 -0 -0 -0 0 0 0 0 0 0 0 0 0 0 0 0 1 1 0 0 0 0 nan
nan 0 -0 -0 -0 0 -0 0 -0 0 -0 -0 -0 -0 -0 -0 -0 -0 -0 -0 -0 -0 -0 -0 -0 -0 -0 -0 0 0 0 0 0 0 0 0 0 0 0 0 -0 0 nan
nan 0 0 0 0 0 0 0 0 -0 0 0 -0 -0 -0 -0 -1 -0 -0 -0 -0 -0 -0 -0 -0 -0 -0 -0 0 0 0 0 0 0 -0 0 0 0 0 0 0 0 nan
nan -0 -0 0 0 0 0 0 -0 0 0 0 -0 -0 -0 -0 -0 -0 -0 -0 -0 -0 -0 -0 -0 -0 -0 -0 0 0 0 0 0 0 0 0 0 0 0 -0 -0 -0 nan
nan 0 -0 -0 0 -0 -0 -0 0 0 0 -0 -0 -0 -0 -0 -0 -0 -0 -0 -0 -0 -0 -0 -0 -0 -0 -0 -0 0 0 0 0 0 0 0 0 0 0 -0 -0 -0 nan
nan 0 -0 -0 0 -0 -0 0 0 0 -0 -0 -0 -0 -0 -0 -0 -0 -0 -0 -0 -0 -0 -0 -0 -0 -0 -0 -0 0 0 0 0 0 0 -0 -0 0 0 -0 -0 0 nan
nan -0 -0 -0 0 0 -0 -0 0 0 0 -0 -0 -0 -0 -0 -0 -0 -0 -0 -0 -0 -0 -0 -0 -0 -0 -0 -0 0 0 -0 -0 0 0 0 0 0 0 0 -0 -0 nan
nan -0 -0 -0 -0 -0 -0 -0 -0 0 -0 -0 -0 -0 -0 -0 -0 -0 -0 -0 -0 -0 -0 -0 -0 -0 -0 -0 -0 -0 0 0 -0 -0 -0 0 -0 -0 0 0 0 0 nan
nan -0 -0 -0 -0 -0 0 0 -0 -0 -0 -0 0 -0 -0 -0 -0 -0 -0 -0 -0 -0 -0 -0 0 -0 -0 -0 -0 0 -0 -0 -0 -0 -0 -0 -0 -0 -0 -0 -0 0 nan
nan -0 -0 -0 0 0 0 0 0 -0 -0 0 0 0 0 -0 -0 -0 -0 -0 -0 -0 -0 0 0 0 0 -0 -0 -0 -0 -0 -0 -0 -0 -0 -0 -0 -0 -0 -0 -0 nan
nan -0 -0 0 0 0 0 0 0 0 -0 -0 0 0 0 0 -0 0 0 -0 -0 -0 -0 -0 -0 0 0 0 -0 -0 -0 -0 -0 -0 -0 -0 -0 -0 -0 -0 -0 -0 nan
nan -0 0 0 0 -0 0 0 0 0 0 0 -0 0 0 0 0 0 0 0 0 -0 -0 -0 -0 -0 -0 -0 -0 -0 -0 -0 -0 -0 0 -0 -0 -0 -0 -0 -0 -0 nan
nan 0 0 0 0 0 0 0 0 0 0 0 0 0 0 0 0 0 0 0 0 -0 -0 0 0 0 0 0 -0 -0 -0 -0 -0 -0 -0 -0 -0 -0 -0 -0 -0 -0 nan
nan 0 0 0 0 0 0 0 0 0 0 0 0 0 0 0 0 0 0 0 0 0 0 -0 0 0 0 0 -0 -0 -0 -0 -0 -0 -0 -0 -0 -0 -0 -0 -0 -0 nan
nan 0 0 0 0 0 0 0 0 0 0 0 0 0 0 0 0 0 0 0 0 0 0 0 0 0 0 0 -0 -0 -0 -0 -0 -0 0 0 0 0 -0 -0 -0 0 nan
nan 1 0 0 0 0 0 0 0 0 0 0 0 0 0 0 0 0 0 0 0 0 0 0 0 0 0 0 0 -0 -0 0 0 0 0 0 0 0 0 0 0 0 nan
nan 1 0 0 0 0 0 0 0 0 0 0 0 0 0 0 0 0 0 0 0 0 0 0 0 0 0 0 0 0 -0 0 0 0 0 0 0 0 0 0 0 0 nan
nan 1 0 -0 0 0 0 0 0 0 0 0 0 0 0 0 0 0 0 0 0 0 0 -0 0 0 0 0 -0 0 0 0 0 0 0 0 0 0 0 0 0 0 nan
nan 0 0 0 0 0 0 0 0 0 0 0 0 0 0 0 0 0 0 0 0 0 0 0 -0 0 0 0 0 -0 -0 0 0 0 -0 -0 0 0 0 0 0 0 nan
nan 1 1 0 -1 0 0 0 0 0 0 0 0 0 0 0 0 0 0 0 0 0 0 0 0 -0 -0 0 0 0 0 -0 -0 0 0 -0 -0 0 0 0 0 0 nan
nan 0 1 0 -0 0 0 0 0 0 0 0 0 0 0 0 0 0 0 -0 0 0 0 0 0 -0 -0 -0 -0 0 0 0 -0 -0 -0 -0 -0 -0 0 0 -0 -0 nan
nan nan nan nan nan nan nan nan nan nan nan nan nan nan nan nan nan nan nan nan nan nan nan nan nan nan nan nan nan nan nan nan nan nan nan nan nan nan nan nan nan nan nan
Wind_Speed
10 10 9 9 10 11 11 11 9 9 12 14 16 19 19 18 21 23 23 23 23 24 23 24 25 25 26 27 26 28 36 34 36 36 33 30 30 34 35 37 30 29 25
8 7 8 9 10 10 10 11 11 10 8 8 8 9 10 11 10 10 12 14 14 14 15 18 19 20 19 21 24 26 29 25 25 29 29 27 27 31 29 30 27 26 26
8 7 8 7 8 11 13 12 11 11 10 10 10 9 9 10 10 9 11 14 15 17 16 15 17 19 21 26 28 25 23 18 20 21 23 24 24 23 25 25 22 21 24
8 7 9 8 7 5 5 5 6 8 9 10 9 9 9 10 11 10 10 10 13 13 13 14 14 16 18 18 17 14 11 10 13 15 13 18 19 19 19 19 19 21 21
6 5 7 7 6 4 4 3 3 6 6 5 5 5 6 8 8 8 8 8 9 9 9 10 11 10 8 6 4 5 6 7 10 11 12 14 16 16 16 16 17 16 16
2 2 3 2 3 3 2 0 0 2 1 4 4 5 6 7 7 5 5 5 5 5 4 3 2 2 2 2 2 4 5 6 8 9 11 12 12 12 12 13 13 13 15
3 2 2 2 3 3 3 3 3 4 4 5 8 9 8 10 12 11 12 10 8 7 5 4 4 3 2 4 5 6 6 7 8 9 11 12 11 11 12 13 14 17 21
2 3 3 3 4 4 5 6 7 8 8 9 10 10 10 11 11 11 12 10 8 6 4 4 3 5 6 7 8 8 7 6 8 10 11 10 11 12 14 17 17 19 20
5 5 6 7 7 8 9 11 11 10 11 11 12 11 10 10 9 9 9 7 6 4 3 4 4 4 6 8 8 8 8 8 8 8 10 10 11 13 14 16 16 16 16
10 11 11 11 12 13 13 13 12 10 10 10 9 9 10 9 8 7 7 7 6 6 7 8 9 9 8 8 10 10 11 11 11 13 15 16 16 13 12 12 11 11 11
13 13 13 14 14 14 12 10 9 9 9 8 8 7 6 6 7 8 8 8 8 9 10 10 11 10 10 10 12 10 11 13 14 14 15 12 9 7 7 8 9 11 14
11 11 11 11 11 10 9 8 7 7 6 6 6 7 7 8 9 9 10 11 11 11 11 11 12 12 12 11 11 11 11 12 12 10 8 7 7 8 9 10 12 15 18
10 9 9 8 8 7 6 5 4 3 4 4 5 7 8 9 10 11 13 14 14 14 14 15 14 13 12 12 11 10 11 10 8 7 7 7 9 10 11 12 13 16 19
9 8 8 6 5 4 3 2 0 1 3 5 7 9 10 12 13 14 14 14 14 14 15 14 14 13 12 12 11 9 8 7 8 8 9 10 11 12 13 15 16 16 19
10 9 8 7 6 5 4 3 2 3 4 7 9 11 12 14 15 16 16 16 15 14 14 13 12 11 11 11 11 10 9 9 10 11 13 13 12 12 13 14 15 17 19
11 10 9 9 8 7 5 5 4 5 6 9 11 12 13 14 15 15 16 15 14 14 14 13 11 11 12 12 11 10 10 12 13 12 12 12 14 14 16 16 17 18 20
13 12 12 11 10 9 8 7 6 7 8 10 12 13 14 14 14 14 14 14 12 12 12 11 11 11 11 12 11 11 11 12 12 12 13 14 15 17 19 20 20 21 22
15 14 14 13 12 11 9 8 8 8 9 11 13 14 14 14 14 13 12 12 10 10 11 12 11 11 11 11 11 12 12 13 13 14 15 16 17 19 22 22 23 24 26
17 16 15 14 13 12 11 10 9 10 11 12 13 14 15 15 15 14 13 12 11 10 10 11 11 11 11 12 12 13 14 14 15 16 17 19 20 22 24 25 26 26 27
20 17 17 16 15 14 13 11 10 10 12 13 14 15 15 15 14 13 12 12 12 12 12 11 11 11 12 13 13 14 15 15 16 18 18 20 21 23 25 26 27 28 29
23 21 19 18 17 15 13 12 11 11 12 13 14 14 15 15 13 13 12 11 12 12 12 12 12 12 12 13 15 16 17 18 18 19 20 22 23 25 25 27 28 29 30
25 24 20 19 17 16 14 13 12 12 12 13 13 13 13 13 13 12 12 12 12 12 13 14 13 13 14 15 16 18 19 20 19 20 22 23 24 26 27 28 29 29 30
26 25 21 19 18 17 15 13 13 13 12 13 13 12 12 12 12 12 12 12 12 12 13 14 15 14 14 16 18 20 22 21 21 22 24 26 28 28 28 28 28 30 33
26 25 22 19 19 17 15 14 13 13 12 13 13 12 12 12 12 12 12 13 13 13 14 15 16 17 18 18 18 18 20 21 22 23 24 26 27 26 28 31 33 35 38
24 26 26 19 19 17 15 14 13 13 13 13 13 13 12 13 13 13 13 15 16 16 16 17 17 18 20 20 20 21 22 22 22 23 25 27 29 31 33 36 38 40 42
22 23 23 17 18 17 15 14 13 13 13 14 14 13 13 13 13 14 16 17 19 19 19 18 18 19 20 21 21 21 22 23 23 23 25 28 31 34 37 40 42 43 45
Wind_Direction
283 283 267 252 254 266 289 280 289 285 279 273 267 267 272 269 267 270 271 274 275 273 274 276 274 272 273 274 280 281 272 265 260 261 257 247 241 237 237 251 254 257 258
280 276 269 257 254 260 279 292 289 293 301 310 306 296 293 289 288 287 275 265 271 276 273 273 272 271 281 289 284 284 279 274 268 261 258 242 238 243 251 250 252 256 259
270 265 266 273 270 265 280 283 284 289 297 302 299 301 310 310 306 288 274 271 278 280 276 271 266 267 276 278 274 274 274 277 266 259 258 250 248 242 247 250 260 263 262
270 270 265 266 276 280 284 296 300 294 292 286 288 289 293 295 295 291 292 301 302 296 292 286 283 282 279 273 271 264 258 248 246 250 245 249 246 246 244 250 255 257 264
262 250 259 257 246 255 283 292 309 317 303 314 325 328 338 335 323 306 309 307 303 294 291 293 282 273 267 263 252 261 255 240 242 242 238 238 234 235 243 254 256 260 265
233 238 275 235 202 215 236 252 335 273 56 51 46 46 45 41 40 38 39 16 8 5 1 344 341 319 334 302 284 263 251 256 252 246 244 249 254 259 262 255 265 273 286
142 137 135 167 161 157 153 153 128 108 90 80 73 67 67 64 60 58 58 53 57 67 58 36 3 330 294 282 275 260 266 269 275 272 266 265 258 258 265 269 273 277 279
158 166 147 134 139 131 129 121 102 93 84 75 72 66 63 68 59 52 48 41 32 27 16 350 329 315 306 293 280 280 286 290 275 270 271 275 275 275 272 273 275 277 281
147 124 115 115 125 122 119 112 102 93 85 78 75 73 65 62 57 43 31 17 7 4 352 345 335 326 320 313 305 296 285 280 276 265 269 276 282 276 274 275 274 279 284
116 109 111 122 120 119 114 108 101 95 87 79 75 69 62 50 43 27 15 3 350 346 340 337 331 324 317 308 304 294 289 286 275 272 279 282 282 277 265 269 273 280 291
116 115 120 118 117 115 115 111 104 94 82 71 59 51 44 23 11 1 353 347 339 335 330 325 322 321 317 311 303 301 290 286 285 285 284 282 277 270 264 267 279 287 291
131 134 131 127 125 123 120 115 104 87 66 44 28 12 3 355 348 345 342 339 339 334 328 323 320 314 314 311 305 301 295 292 298 295 289 284 276 270 272 279 283 285 287
145 142 141 141 138 136 133 122 102 74 42 15 356 345 340 342 342 339 336 334 335 334 329 328 325 322 318 315 312 305 303 305 300 293 290 285 284 285 286 285 284 286 286
169 171 169 172 173 168 159 150 153 347 355 349 341 337 331 332 332 332 329 327 322 318 315 317 314 312 314 319 318 309 305 298 291 289 287 289 290 291 293 294 298 301 301
190 191 193 199 202 205 214 231 263 305 328 334 332 331 330 328 326 324 323 324 324 324 319 317 313 309 312 318 315 310 304 298 293 290 291 296 300 303 305 306 305 306 306
208 209 212 216 222 225 229 240 268 297 317 327 326 323 322 321 321 319 316 316 316 316 317 318 317 318 319 319 315 306 299 297 293 294 300 305 308 310 310 310 310 311 311
219 219 222 226 231 236 243 255 276 297 312 318 320 320 321 323 319 315 313 313 314 309 309 310 314 317 315 315 310 303 304 308 300 300 303 307 310 312 312 311 311 312 311
225 225 227 230 235 242 253 264 278 293 305 312 317 321 324 325 324 324 321 318 319 314 311 311 312 311 306 306 302 298 298 304 304 302 301 304 307 309 310 311 312 312 311
228 232 232 233 237 243 250 258 272 287 299 308 314 321 325 327 329 324 320 316 317 318 314 311 307 306 305 304 301 297 296 300 303 304 305 305 305 304 303 306 308 308 307
228 231 234 236 238 243 248 256 270 284 297 306 316 323 326 328 328 324 319 316 317 319 316 312 310 308 306 303 300 297 295 295 295 295 296 297 298 299 301 302 303 304 304
228 227 235 236 238 244 249 257 269 281 294 305 315 321 325 329 330 327 324 319 317 316 315 312 311 307 303 299 297 296 296 297 298 301 300 299 301 302 302 302 302 302 303
228 233 225 237 239 242 249 257 267 279 293 304 313 316 322 326 326 326 325 322 320 317 312 310 311 309 305 301 300 299 299 301 304 303 301 302 301 301 301 302 303 305 306
232 235 223 232 238 241 247 255 265 277 292 302 308 313 319 322 324 326 326 324 323 319 314 312 312 310 304 301 301 300 301 305 307 306 306 304 304 305 304 303 305 306 308
236 237 222 226 240 242 247 256 265 277 290 298 305 309 313 316 319 320 321 322 322 319 315 312 311 311 310 309 304 301 300 302 303 304 303 302 302 303 302 302 303 306 307
239 238 228 215 237 243 249 257 267 278 289 299 303 303 306 309 311 313 315 316 317 317 314 312 311 310 309 307 306 304 304 306 305 307 308 306 304 304 303 304 305 306 305
244 239 225 216 236 242 250 258 267 279 289 299 299 297 299 302 304 307 310 315 316 316 316 315 315 313 310 309 308 305 305 306 306 305 301 298 297 298 300 302 304 304 305
Height
1486 1485 1484 1483 1483 1482 1481 1482 1481 1479 1479 1478 1478 1476 1475 1475 1477 1477 1477 1477 1476 1476 1476 1476 1475 1475 1476 1476 1475 1475 1473 1474 1473 1471 1473 1475 1476 1479 1479 1483 1480 1484 1483
1482 1482 1481 1481 1479 1480 1479 1479 1477 1477 1476 1475 1474 1473 1472 1471 1471 1471 1472 1472 1472 1471 1470 1470 1470 1470 1469 1469 1469 1467 1467 1466 1469 1468 1469 1470 1473 1477 1478 1476 1474 1475 1479
1479 1478 1478 1477 1477 1476 1476 1476 1475 1474 1473 1472 1472 1470 1470 1469 1469 1468 1469 1468 1467 1468 1467 1466 1465 1465 1464 1462 1463 1461 1462 1461 1462 1463 1464 1467 1468 1465 1470 1473 1472 1473 1476
1475 1475 1474 1474 1473 1474 1474 1473 1472 1472 1471 1470 1469 1468 1468 1467 1466 1466 1465 1464 1462 1462 1462 1462 1462 1461 1459 1457 1457 1457 1458 1459 1460 1461 1460 1461 1466 1466 1467 1468 1468 1469 1470
1472 1471 1470 1470 1471 1471 1472 1471 1470 1471 1470 1468 1466 1465 1464 1463 1463 1462 1462 1461 1460 1460 1460 1459 1458 1457 1455 1456 1456 1457 1456 1458 1459 1460 1461 1463 1465 1463 1463 1462 1463 1464 1466
1469 1468 1468 1468 1469 1469 1471 1470 1470 1471 1469 1467 1465 1465 1464 1463 1462 1461 1460 1459 1459 1459 1458 1457 1456 1456 1456 1456 1456 1457 1458 1458 1459 1459 1460 1461 1461 1459 1459 1460 1459 1460 1461
1468 1468 1467 1467 1468 1469 1469 1470 1469 1469 1468 1466 1465 1464 1464 1463 1462 1461 1460 1459 1459 1458 1458 1458 1458 1458 1457 1457 1456 1456 1456 1457 1457 1457 1458 1457 1457 1456 1456 1457 1456 1456 1456
1467 1468 1467 1467 1468 1467 1469 1469 1469 1470 1469 1467 1466 1466 1465 1463 1463 1462 1461 1461 1461 1460 1460 1459 1459 1458 1458 1457 1456 1455 1455 1455 1456 1455 1455 1455 1454 1453 1453 1453 1452 1452 1452
1468 1467 1466 1467 1469 1469 1469 1470 1470 1471 1470 1469 1468 1468 1467 1466 1465 1464 1463 1463 1462 1462 1460 1459 1459 1458 1456 1455 1454 1454 1454 1454 1454 1453 1453 1452 1451 1450 1450 1448 1448 1447 1446
1467 1466 1467 1470 1470 1470 1472 1472 1472 1472 1472 1471 1470 1470 1468 1468 1467 1465 1464 1463 1463 1461 1460 1458 1457 1456 1456 1455 1454 1453 1452 1451 1451 1450 1449 1448 1447 1446 1446 1445 1444 1444 1443
1468 1469 1471 1472 1473 1473 1473 1474 1473 1473 1473 1472 1472 1471 1471 1469 1467 1466 1464 1463 1461 1459 1458 1457 1456 1455 1454 1453 1451 1450 1449 1448 1447 1446 1445 1444 1443 1442 1442 1441 1441 1440 1439
1470 1472 1473 1474 1474 1474 1475 1475 1474 1474 1473 1473 1473 1472 1470 1469 1466 1465 1463 1461 1459 1458 1456 1455 1454 1452 1451 1450 1448 1447 1446 1444 1443 1442 1442 1441 1440 1439 1439 1438 1437 1435 1434
1472 1473 1474 1474 1475 1475 1475 1475 1475 1474 1474 1473 1473 1472 1470 1468 1466 1463 1462 1459 1457 1455 1454 1452 1451 1450 1448 1446 1445 1444 1442 1441 1440 1440 1439 1438 1437 1436 1435 1434 1432 1430 1429
1472 1473 1474 1474 1474 1474 1475 1475 1475 1474 1473 1472 1471 1470 1469 1467 1464 1462 1460 1457 1456 1454 1452 1451 1449 1447 1445 1444 1442 1441 1440 1439 1438 1437 1436 1435 1434 1432 1431 1429 1426 1424 1422
1471 1472 1472 1473 1474 1474 1474 1474 1474 1473 1472 1470 1469 1468 1466 1464 1462 1459 1457 1454 1452 1451 1449 1448 1446 1444 1443 1441 1440 1438 1437 1436 1435 1434 1433 1431 1430 1428 1426 1424 1422 1419 1417
1468 1469 1470 1471 1472 1472 1472 1472 1472 1471 1469 1468 1467 1466 1464 1462 1459 1456 1454 1452 1450 1448 1446 1445 1443 1441 1440 1438 1436 1435 1434 1434 1432 1431 1429 1428 1426 1424 1422 1420 1417 1415 1412
1465 1467 1468 1469 1470 1470 1471 1470 1469 1468 1467 1466 1465 1463 1461 1459 1456 1453 1451 1449 1447 1445 1443 1442 1440 1438 1436 1435 1433 1432 1431 1430 1428 1427 1425 1423 1421 1419 1417 1415 1412 1410 1407
1462 1463 1464 1466 1467 1467 1468 1467 1467 1466 1465 1464 1462 1460 1458 1455 1452 1450 1447 1445 1444 1442 1440 1438 1436 1435 1433 1431 1430 1428 1427 1426 1424 1422 1421 1419 1417 1414 1412 1410 1407 1404 1401
1457 1459 1461 1462 1463 1464 1464 1464 1464 1463 1462 1461 1459 1457 1454 1451 1448 1446 1444 1442 1440 1438 1436 1435 1433 1431 1429 1428 1427 1425 1423 1421 1420 1417 1415 1413 1412 1409 1406 1404 1401 1399 1396
1452 1455 1457 1458 1459 1460 1461 1460 1460 1460 1459 1457 1455 1452 1450 1447 1445 1443 1440 1438 1436 1434 1432 1431 1429 1427 1425 1424 1422 1420 1418 1417 1415 1412 1410 1408 1406 1403 1400 1397 1394 1391 1387
1448 1449 1452 1454 1455 1456 1457 1457 1457 1456 1455 1454 1451 1449 1446 1443 1441 1439 1437 1435 1433 1431 1429 1427 1425 1423 1421 1418 1416 1414 1412 1410 1408 1406 1404 1401 1399 1396 1393 1390 1386 1383 1379
1443 1444 1445 1449 1450 1452 1453 1453 1453 1453 1451 1450 1448 1446 1443 1441 1438 1436 1434 1431 1429 1427 1425 1423 1421 1419 1416 1414 1411 1409 1406 1404 1402 1400 1397 1394 1391 1388 1385 1382 1378 1374 1371
1437 1438 1440 1444 1446 1447 1448 1449 1449 1448 1447 1446 1444 1442 1440 1438 1435 1433 1430 1428 1425 1423 1421 1419 1416 1414 1412 1409 1407 1404 1400 1398 1396 1393 1390 1386 1382 1380 1377 1373 1370 1366 1362
1431 1433 1434 1439 1441 1442 1443 1444 1445 1444 1443 1442 1440 1438 1436 1434 1432 1429 1427 1425 1422 1420 1417 1414 1412 1409 1406 1404 1401 1399 1395 1392 1389 1386 1383 1379 1375 1372 1369 1365 1361 1357 1352
1425 1427 1429 1432 1436 1438 1439 1440 1440 1440 1439 1438 1436 1434 1433 1430 1428 1426 1423 1421 1418 1415 1413 1410 1407 1403 1400 1398 1395 1392 1389 1385 1382 1379 1375 1371 1366 1363 1359 1355 1351 1346 1341
1419 1422 1425 1428 1432 1434 1435 1436 1436 1435 1435 1433 1432 1430 1428 1426 1424 1422 1419 1416 1413 1410 1407 1404 1401 1397 1394 1392 1389 1385 1382 1378 1375 1373 1369 1365 1360 1355 1351 1345 1340 1335 1330